Tracking 18850 objects as of 22-Nov-2017
HD Live streaming from Space Station
objects crossing your sky now

COSMOS 1924

Track COSMOS 1924 now!
10-day predictions
COSMOS 1924 is classified as:


NORAD ID: 18937
Int'l Code: 1988-016A
Perigee: 1,467.3 km
Apogee: 1,521.5 km
Inclination: 74.0 °
Period: 115.7 minutes
Semi major axis: 7865 km
RCS: 0.6962 m2 (medium)
Launch date: March 11, 1988
Source: Commonwealth of Independent States (former USSR) (CIS)
Launch site: PLESETSK MISSILE AND SPACE COMPLEX (PKMTR)
aabbcc
Your satellite tracking list
Your tracking list is empty




NASA's NSSDC Master Catalog

Two Line Element Set (TLE):
1 18937U 88016A   17325.90581899 -.00000018 +00000-0 -14817-4 0  9994
2 18937 074.0047 291.7649 0034464 004.0989 055.0915 12.44577597349339
Source of the keplerian elements: AFSPC